This is the latest recevied weather packets stored in our database for station/object DK8DX-13. If no packets are shown the sender has not sent any weather packets the latest 10 day(s).
| Time | Temp. | Humidity | Pressure | Rain* | Wind** | Luminosity | Snow |
|---|---|---|---|---|---|---|---|
| 1777537587 | 15° C | 30% | 1032.9 hPa | 0 mm | - | - | - |
| 1777537307 | 15° C | 30% | 1032.8 hPa | 0 mm | - | - | - |
| 1777537056 | 14.44° C | 31% | 1032.8 hPa | 0 mm | - | - | - |
| 1777536802 | 14.44° C | 31% | 1032.8 hPa | 0 mm | - | - | - |
| 1777536529 | 13.89° C | 30% | 1032.9 hPa | 0 mm | - | - | - |
| 1777536277 | 14.44° C | 30% | 1032.9 hPa | 0 mm | - | - | - |
| 1777536002 | 14.44° C | 31% | 1032.9 hPa | 0 mm | - | - | - |
| 1777535742 | 14.44° C | 31% | 1032.9 hPa | 0 mm | - | - | - |
| 1777535472 | 13.89° C | 31% | 1032.9 hPa | 0 mm | - | - | - |
| 1777535209 | 13.89° C | 31% | 1033 hPa | 0 mm | - | - | - |
| 1777534952 | 13.89° C | 32% | 1033 hPa | 0 mm | - | - | - |
| 1777534672 | 13.33° C | 34% | 1033 hPa | 0 mm | - | - | - |
| 1777534423 | 12.78° C | 33% | 1033.2 hPa | 0 mm | - | - | - |
| 1777534154 | 12.78° C | 32% | 1033.2 hPa | 0 mm | - | - | - |
| 1777533887 | 12.78° C | 34% | 1033.2 hPa | 0 mm | - | - | - |
| 1777533607 | 12.22° C | 36% | 1033.2 hPa | 0 mm | - | - | - |
| 1777533332 | 12.22° C | 34% | 1033.3 hPa | 0 mm | - | - | - |
| 1777533072 | 12.22° C | 34% | 1033.3 hPa | 0 mm | - | - | - |
| 1777532797 | 12.22° C | 34% | 1033.1 hPa | 0 mm | - | - | - |
| 1777532507 | 12.22° C | 36% | 1033.3 hPa | 0 mm | - | - | - |
| 1777532235 | 11.67° C | 36% | 1033.2 hPa | 0 mm | - | - | - |
| 1777531967 | 11.67° C | 36% | 1033.3 hPa | 0 mm | - | - | - |
| 1777531693 | 11.67° C | 37% | 1033.2 hPa | 0 mm | - | - | - |
| 1777531437 | 11.11° C | 37% | 1033.2 hPa | 0 mm | - | - | - |
| 1777531167 | 11.11° C | 37% | 1033.2 hPa | 0 mm | - | - | - |
* Rain latest hour (hover to see other rain measurements)
** Current wind speed in m/s (hover to see current wind gust speed)